Location: Truman State University Observatory
(40.1787°N, 92.6006°W)
Time: 16:11:30
(UTC-06:00)

Tiangong 2 - Visible Passes

Search period start: 24 November 2017 00:00
Search period end: 04 December 2017 00:00
Orbit: 386 x 392 km, 42.8° (Epoch: 24 November)

Date Brightness Start Highest point End Pass type
(mag) Time Alt. Az. Time Alt. Az. Time Alt. Az.
25 Nov 3.8 06:15:54 10° SSW 06:18:19 20° SSE 06:20:45 10° E visible
26 Nov 4.2 05:19:10 10° SSE 05:20:19 11° SE 05:21:27 10° ESE visible
27 Nov 2.6 05:55:35 10° SW 05:58:31 35° SSE 06:01:29 10° E visible
28 Nov 3.4 05:00:26 21° SSE 05:00:26 21° SSE 05:02:56 10° E visible
28 Nov 1.1 06:33:48 10° WSW 06:37:00 87° NNW 06:40:13 10° ENE visible
29 Nov 1.4 05:37:48 38° SW 05:38:45 62° SSE 05:41:55 10° ENE visible
30 Nov 4.1 04:42:37 17° E 04:42:37 17° E 04:43:33 10° E visible
30 Nov 1.2 06:14:56 16° W 06:17:19 62° N 06:20:30 10° ENE visible
01 Dec 1.7 05:19:37 54° ENE 05:19:37 54° ENE 05:22:13 10° ENE visible
02 Dec 1.4 05:56:31 33° WNW 05:57:38 52° N 06:00:47 10° ENE visible
03 Dec 3.4 05:01:02 23° ENE 05:01:02 23° ENE 05:02:26 10° ENE visible
03 Dec 1.4 06:33:20 11° WNW 06:36:19 55° N 06:39:28 10° E visible
